Flag for Poland Weather past 2 weeks in Zielona Góra, Poland

Now
59 °F

Scattered clouds.


Feels Like: 59 °F
Forecast: 45 / 69 °F
Wind: 6 mph from West

Location: Zielona Gora

Current Time: May 30, 2015 at 6:42:15 PM

Latest Report: May 30, 2015 at 6:00 PM


Visibility: 31 mi

Pressure: 29.92 "Hg

Humidity: 40%

Dew point: 35 °F

Location of Zielona GóraLocation

Historic Weather in Zielona Góra — Graph

°F

Zielona Góra temperature yesterday

Maximum temperature yesterday: 68 °F (at 5:00 PM)
Minimum temperature yesterday: 51 °F (at 4:00 AM)
Average temperature yesterday: 58 °F

Past Weeks' High & Low Weather Summary

 TemperatureHumidityPressure
High70 °F (May 19, 12:00 PM)94% (May 20, 10:00 PM)30.32 "Hg (May 20, 10:00 PM)
Low45 °F (May 18, 5:00 AM)30% (May 22, 2:00 PM)29.64 "Hg (May 19, 5:00 AM)
Average57 °F60%30.01 "Hg
* Reported May 15 5:00 PM — May 30 5:00 PM, Zielona Góra, Weather by CustomWeather, © 2015

Note: Actual official high and low records may vary slightly from our data, if they occured in-between our weather recording intervals... More about our weather records

Advertising

Zielona Góra weather history for previous 24 hours

 ConditionsComfort  
Time TempWeatherWind HumidityBarometerVisibility
5:00 PM
Sat, May 30
60 °FPartly sunny.7 mph41%29.90 "Hg28 mi
4:00 PM59 °FPartly sunny.6 mph48%29.90 "Hg25 mi
3:00 PM60 °FScattered clouds.6 mph47%29.88 "Hg25 mi
2:00 PM61 °FPartly sunny.6 mph46%29.87 "Hg25 mi
1:00 PM59 °FScattered clouds.6 mph50%29.88 "Hg31 mi
12:00 PM55 °FPartly sunny.5 mph60%29.88 "Hg31 mi
11:00 AM55 °FPartly sunny.5 mph63%29.87 "Hg31 mi
10:00 AM52 °FSprinkles. Partly sunny.3 mph68%29.86 "Hg31 mi
9:00 AM53 °FOvercast.6 mph63%29.84 "Hg31 mi
8:00 AM58 °FPartly sunny.5 mph68%29.80 "Hg22 mi
7:00 AM55 °FOvercast.3 mph74%29.78 "Hg28 mi
6:00 AM54 °FPartly sunny.5 mph80%29.78 "Hg31 mi
4:00 AM56 °FPassing clouds.3 mph77%29.75 "Hg31 mi
3:00 AM55 °FPassing clouds.3 mph86%29.76 "Hg19 mi
2:00 AM54 °FOvercast.2 mph89%29.77 "Hg16 mi
1:00 AM54 °FOvercast.2 mph89%29.78 "Hg16 mi
12:00 AM54 °FPassing clouds.2 mph89%29.79 "Hg16 mi
10:00 PM
Fri, May 29
56 °FPassing clouds.3 mph81%29.80 "Hg19 mi
9:00 PM58 °FScattered clouds.2 mph77%29.80 "Hg19 mi
8:00 PM59 °FOvercast.2 mph78%29.80 "Hg25 mi
7:00 PM64 °FSprinkles. Overcast.1 mph47%29.80 "Hg25 mi
6:00 PM66 °FOvercast.2 mph41%29.80 "Hg25 mi
Weather by CustomWeather, © 2015

See weather overviewHow to use our weather pages